Tracking 27086 objects as of 22-Mar-2023
HD Live streaming from Space Station
objects crossing your sky now

STARLINK-1880

Track STARLINK-1880 now!
10-day predictions
STARLINK-1880 is classified as:


NORAD ID: 47165
Int'l Code: 2020-088AV
Perigee: 553.2 km
Apogee: 555.7 km
Inclination: 53.1 °
Period: 95.6 minutes
Semi major axis: 6925 km
RCS: Unknown
Launch date: November 25, 2020
Source: United States (US)
Launch site: AIR FORCE EASTERN TEST RANGE (AFETR)
Your satellite tracking list
Your tracking list is empty




NASA's NSSDC Master Catalog

Two Line Element Set (TLE):
1 47165U 20088AV  23081.21803278  .00008398  00000-0  58233-3 0  9998
2 47165  53.0524 125.5112 0001810 104.6533 255.4656 15.06377741128783
Source of the keplerian elements: AFSPC